Wind_Speed
15 15 15 15 14 13 13 13 14 15 15 14 13 14 14 14 14 14 15 15 15 15 16 17 17 17 17 18 19 18 18 20 23 25 28 30 31 31 30 29 27 26 26 26 27 28 30 32 35 37 38 39 39 39 38 39 40 40 40 40 39 38 38 38 37 38 37 37 37 36 35 36 36 35
15 16 16 16 16 14 14 14 14 14 14 14 13 13 13 14 14 14 14 14 14 13 15 16 16 16 16 16 17 18 17 17 17 18 20 23 24 25 26 27 27 27 27 26 26 27 28 30 32 35 36 38 38 38 38 39 39 40 41 40 39 38 37 37 35 35 36 36 37 36 36 37 38 38
15 16 17 17 17 17 16 15 15 15 15 15 15 14 14 14 15 15 15 15 15 14 15 16 16 16 16 16 17 18 18 17 17 18 18 20 21 21 22 23 24 25 26 26 26 27 28 29 31 32 34 35 36 36 36 36 37 37 38 38 37 35 35 34 33 31 32 34 36 37 37 38 39 40
16 17 18 18 18 19 18 17 17 17 17 18 18 17 17 17 17 17 17 18 17 17 17 18 18 18 19 19 19 20 20 19 19 19 20 21 22 22 21 22 22 23 24 25 25 25 27 28 29 30 30 31 31 31 31 31 31 31 32 33 32 31 31 31 31 29 29 31 34 36 37 38 39 40
18 18 19 19 19 20 20 20 20 20 20 20 20 20 20 20 20 19 20 20 20 20 20 20 21 21 22 22 23 22 22 21 21 22 23 24 24 24 24 24 24 24 25 25 25 25 26 27 28 28 28 28 28 28 28 28 27 28 28 28 28 28 27 27 27 27 27 29 31 33 35 37 38 38
18 18 19 20 20 21 22 22 23 23 23 23 23 23 23 23 23 23 22 22 22 22 22 22 23 23 23 24 25 25 24 24 24 24 25 26 26 26 26 27 27 27 27 27 27 27 28 29 29 28 28 28 28 28 28 28 28 27 27 27 27 27 27 26 25 25 26 27 29 30 32 33 35 36
19 20 20 20 20 21 22 23 24 25 26 26 26 26 26 26 26 26 26 26 25 25 25 25 25 26 26 26 26 27 27 27 27 26 27 27 27 27 28 28 28 29 29 29 29 30 30 31 30 30 30 30 30 30 30 30 30 30 30 30 29 29 29 29 28 27 27 28 29 30 30 30 32 33
22 23 23 22 22 23 23 23 24 25 26 27 28 29 29 29 29 29 30 30 29 28 28 28 29 29 29 29 29 29 29 29 30 30 30 30 30 29 29 29 29 30 30 30 30 31 31 32 32 31 32 32 32 32 32 32 32 32 32 32 32 33 32 32 32 31 31 30 31 32 31 31 31 31
26 26 26 26 26 26 26 26 26 26 27 28 29 29 30 30 31 31 31 32 33 33 32 32 32 32 32 32 32 32 32 32 32 32 32 32 32 32 31 31 30 30 30 30 30 31 31 32 32 33 33 32 32 33 33 33 33 34 34 33 34 34 34 34 35 35 34 34 33 34 34 34 34 34
30 30 30 30 29 29 30 30 30 29 29 30 30 31 31 32 32 32 32 33 33 34 35 35 35 35 34 34 34 35 35 34 33 34 33 33 34 34 34 33 32 32 32 31 31 31 32 32 32 32 32 32 32 32 33 33 33 33 33 33 34 34 35 35 36 36 36 36 36 36 36 37 37 36
33 33 33 32 31 31 31 32 32 32 32 32 32 32 33 33 34 34 34 34 34 34 34 35 36 36 36 36 35 36 36 35 35 35 35 35 35 35 35 35 35 34 34 33 32 32 32 32 32 32 31 31 31 31 32 32 32 31 32 32 33 34 35 35 35 35 36 36 36 36 37 38 39 39
35 36 36 35 34 34 34 34 34 34 34 34 34 34 34 35 36 36 36 36 36 36 36 36 36 36 37 38 37 37 37 37 37 37 36 36 36 37 37 37 37 36 36 35 35 34 33 32 32 32 31 31 31 31 31 31 31 31 31 31 32 33 33 34 34 34 35 35 36 36 37 38 39 40
39 40 40 39 38 37 37 38 37 36 35 35 35 35 35 36 36 37 38 38 38 38 38 37 38 37 38 39 39 39 39 39 39 39 39 38 38 38 39 39 39 39 38 37 36 35 34 33 31 31 31 31 31 31 32 32 31 30 30 30 30 31 31 31 31 32 33 34 35 35 36 37 39 39
40 40 40 39 39 39 39 40 40 38 36 35 35 36 37 38 38 38 38 39 40 40 39 39 39 38 39 40 41 41 41 41 41 41 42 42 42 42 41 40 40 41 40 38 37 36 35 35 33 32 32 32 32 32 33 33 32 31 31 31 31 31 32 32 32 32 33 34 34 35 36 37 38 39
40 40 41 41 40 40 41 42 41 38 37 37 38 40 41 41 41 41 40 40 40 41 41 41 41 40 40 41 41 42 43 43 43 43 44 45 45 46 45 44 43 44 42 40 38 38 37 37 36 35 35 35 34 34 34 34 33 33 33 34 34 35 35 35 35 35 36 37 37 38 39 39 39 40
43 43 45 44 43 43 44 43 41 39 40 43 45 46 46 45 45 44 43 42 42 42 42 42 42 43 43 42 43 44 44 44 44 45 46 46 47 47 48 48 47 47 46 43 41 40 39 39 38 37 37 38 37 37 37 37 36 36 36 37 38 38 39 39 39 39 40 40 41 42 43 43 43 42
47 47 48 48 47 47 47 46 46 46 48 49 50 50 49 47 46 46 45 45 45 44 44 43 43 43 44 44 44 45 46 46 46 46 47 48 48 47 48 49 49 49 49 48 45 42 41 42 40 38 38 39 39 39 40 40 40 39 39 40 41 42 42 43 43 43 44 44 45 46 46 47 47 46
50 50 51 51 50 50 51 52 53 53 53 52 50 49 48 47 47 47 46 46 46 46 46 46 45 45 45 45 45 46 47 48 48 48 48 48 48 48 47 47 49 50 50 50 49 45 44 45 44 41 40 42 42 42 43 44 44 43 43 43 44 45 45 46 47 48 48 49 49 49 50 50 50 50
52 52 52 53 53 53 54 56 56 55 54 52 50 48 48 47 48 48 48 49 49 48 48 47 48 48 48 47 47 47 48 49 49 50 49 49 49 49 49 47 48 49 50 51 51 48 46 47 47 45 44 45 46 46 47 48 48 48 48 48 48 48 48 49 50 51 53 53 52 52 52 52 51 51
53 52 53 53 53 54 56 57 57 56 54 53 53 53 53 52 51 50 50 50 50 50 49 49 49 49 50 50 49 49 49 50 51 51 51 51 51 51 51 49 49 49 51 52 52 51 49 50 50 50 49 50 50 51 50 51 52 53 53 52 52 52 52 52 53 55 56 57 56 54 53 52 52 52
51 51 51 52 52 52 53 53 54 54 54 55 56 56 54 53 51 50 50 50 49 49 50 50 50 50 50 51 51 51 51 51 52 53 53 53 54 53 52 52 51 51 52 54 55 54 53 53 53 54 54 54 55 55 55 55 56 56 56 56 55 55 55 55 56 58 59 60 59 57 55 53 53 53
51 51 50 50 50 50 50 52 53 54 55 55 54 52 51 50 50 50 50 50 50 50 50 50 51 52 52 52 53 53 53 53 54 54 54 54 56 55 55 55 54 54 54 56 58 59 58 57 57 57 57 57 57 58 59 59 60 60 60 59 59 59 58 58 59 61 61 61 61 61 59 57 56 56
51 51 50 50 51 52 53 55 55 55 54 52 49 49 50 51 51 52 51 51 51 51 50 51 52 53 54 54 54 55 55 56 56 56 56 56 56 56 56 57 57 56 56 57 60 62 62 62 62 61 62 61 61 63 63 63 63 63 63 63 63 62 61 61 61 62 63 63 64 64 62 60 59 59
51 51 51 51 52 53 53 53 54 54 53 51 51 52 52 52 52 52 51 51 51 50 50 50 51 52 54 55 56 57 57 58 58 58 58 59 59 58 57 57 57 57 57 59 62 63 63 64 64 65 65 65 66 67 67 67 66 66 67 67 66 64 62 62 62 63 64 65 66 66 65 64 63 63
51 52 52 51 51 51 51 52 53 53 53 54 54 53 53 52 51 50 50 49 49 49 50 50 50 51 53 55 57 58 59 60 61 61 61 61 61 61 60 59 58 57 57 60 62 63 63 64 64 65 67 67 68 68 68 68 67 66 66 66 65 62 61 62 63 64 65 66 67 67 67 67 67 67
51 52 52 51 51 51 52 53 53 53 54 54 54 53 52 51 49 48 48 48 48 49 50 50 51 52 54 55 57 58 59 60 62 63 63 64 64 64 63 62 61 59 58 59 61 61 61 61 62 63 64 64 64 64 64 64 63 62 62 62 62 61 62 62 64 65 66 67 68 68 69 69 70 70
51 51 51 50 50 52 52 53 53 53 53 53 52 52 51 49 47 47 48 49 50 51 53 54 55 56 57 58 59 60 61 61 62 63 63 64 65 66 65 65 64 63 61 61 61 62 61 61 62 62 63 63 63 62 62 62 61 61 62 63 63 64 64 64 65 66 67 69 70 71 71 72 72 71
50 50 50 50 50 51 51 51 52 52 53 52 52 51 49 48 48 49 51 53 55 56 58 59 60 60 61 61 61 62 63 63 63 63 64 64 65 65 66 66 66 66 65 64 64 65 66 65 65 65 65 66 66 65 64 64 64 64 65 65 66 66 66 66 66 68 69 70 72 72 73 72 72 71
48 49 49 49 49 49 50 50 51 51 51 51 50 50 50 51 52 54 57 59 61 61 62 62 62 61 61 61 61 61 62 64 64 65 66 65 65 65 65 66 66 66 66 66 67 67 67 67 67 66 67 67 67 66 66 66 66 66 66 66 66 66 67 67 68 70 71 72 72 73 73 73 73 72
47 48 48 48 48 49 49 49 49 49 49 49 50 51 53 55 57 60 62 63 63 63 62 61 61 59 58 58 58 59 60 61 63 64 65 66 66 66 66 65 65 66 66 66 66 66 67 66 66 66 65 65 65 65 65 66 67 67 67 67 67 67 68 69 70 72 73 74 74 74 74 73 71 68
47 47 48 48 47 47 47 47 47 48 48 49 50 52 55 58 60 63 64 63 62 60 59 58 58 57 56 56 56 56 57 58 59 61 62 63 65 66 67 66 65 65 65 65 65 64 64 64 64 63 63 63 64 65 66 67 68 68 68 68 68 69 71 72 73 74 73 72 71 69 67 64 61 58
46 46 46 46 45 45 45 45 45 46 47 49 52 54 57 60 61 62 61 60 59 58 58 57 56 56 56 55 55 55 55 55 56 57 57 58 60 62 65 66 66 65 64 64 63 62 62 62 63 63 63 64 65 67 68 68 67 68 70 70 70 70 71 70 69 67 64 61 59 57 55 53 52 51
43 43 43 42 42 42 42 42 43 45 48 51 54 56 58 59 59 59 58 58 57 57 57 56 55 55 54 54 54 54 54 53 53 54 54 54 55 56 58 61 63 65 65 63 62 61 61 62 63 64 65 65 66 66 67 68 69 70 71 68 65 63 61 59 57 55 53 52 51 50 49 49 48 48
37 37 37 37 38 38 39 41 43 46 49 52 54 55 56 56 56 56 56 56 55 55 54 53 52 52 51 50 51 51 51 52 52 52 52 51 51 51 52 54 58 62 63 62 61 61 61 62 63 64 65 66 66 67 68 68 68 67 64 59 55 53 51 50 49 48 47 47 46 45 45 45 44 44
31 31 32 33 35 37 39 42 44 46 49 50 52 52 53 53 54 54 54 53 52 52 51 51 50 50 49 48 47 47 47 48 49 49 49 49 48 48 48 49 51 55 58 59 60 61 62 63 64 64 65 65 66 65 64 62 59 56 53 50 48 46 45 44 44 43 42 41 42 42 42 41 41 42
27 29 31 33 35 37 39 41 43 45 47 48 49 51 52 52 52 52 52 53 53 53 53 52 50 49 48 47 46 45 44 44 45 45 46 47 47 46 46 46 48 52 55 57 59 61 62 63 63 63 62 61 59 56 54 53 50 48 46 44 42 41 41 42 42 41 40 39 39 39 39 39 39 40
26 28 30 32 34 37 39 40 42 44 46 48 50 51 52 52 52 53 55 55 55 54 52 49 46 44 43 43 42 42 41 41 41 42 42 43 44 44 44 45 47 50 53 55 57 58 59 58 58 56 55 53 51 48 47 47 45 43 42 41 40 40 41 40 39 38 36 36 36 36 35 36 36 36
26 28 30 33 35 36 38 40 42 45 47 49 51 52 53 54 55 55 55 53 51 48 45 42 40 38 37 37 36 37 37 37 38 38 39 40 41 41 42 43 45 47 49 50 51 52 51 51 50 49 48 48 46 45 44 44 43 42 41 41 40 40 40 37 34 32 32 33 32 31 31 32 33 33
27 29 31 33 34 36 38 40 43 45 48 50 51 52 53 54 54 52 49 46 43 40 37 34 33 31 30 30 30 31 31 32 33 34 35 36 36 37 38 39 40 41 42 43 43 44 44 44 43 43 44 43 42 42 41 41 41 41 40 40 38 37 35 33 30 29 30 31 30 29 29 30 30 31
27 29 31 32 33 35 37 39 41 44 46 49 50 51 51 50 47 44 40 36 33 29 27 25 24 23 23 23 24 24 24 25 27 28 29 31 32 33 34 35 35 36 36 36 37 38 38 39 40 40 40 39 38 37 36 36 36 36 36 35 34 32 29 28 29 30 30 30 30 29 29 29 29 29
26 27 28 29 30 32 34 37 40 43 45 46 47 47 45 42 38 33 29 26 24 22 20 19 18 17 17 17 18 18 19 20 22 24 26 27 29 30 30 31 31 32 32 33 34 35 36 38 38 38 37 37 36 34 33 32 31 31 31 30 29 28 27 28 28 28 27 26 26 26 27 28 28 27
23 24 25 26 28 31 34 37 41 43 44 43 42 38 34 31 27 25 23 21 20 19 18 16 15 14 14 15 15 16 17 19 20 22 23 25 26 27 28 28 29 29 31 32 34 35 35 36 37 37 37 36 35 34 33 31 30 29 28 27 27 27 28 28 27 27 25 24 22 22 25 27 27 25
20 21 23 25 28 31 35 38 41 42 42 39 35 30 24 21 21 21 21 19 18 17 15 14 13 13 14 14 15 16 17 18 20 22 23 25 26 26 27 28 28 29 31 31 31 31 31 32 33 33 33 32 32 32 32 31 29 28 27 27 28 28 28 27 27 26 25 23 21 21 23 25 26 24
19 21 23 26 29 32 35 38 40 40 36 32 28 23 19 17 18 19 18 17 15 13 12 11 12 12 13 15 16 18 19 21 22 23 24 24 24 24 25 25 25 26 26 25 24 25 25 26 27 27 26 26 27 27 28 28 28 28 29 29 28 27 27 26 25 25 23 22 22 22 22 23 23 21
21 23 24 27 30 33 36 39 39 36 29 25 22 19 16 14 14 14 13 12 11 10 10 10 11 12 14 17 20 20 19 18 18 18 18 18 18 19 19 19 19 19 18 18 19 21 23 24 24 23 22 22 22 22 23 23 24 26 28 28 27 26 25 24 22 22 22 21 21 21 22 21 18 16
Wind_Direction
279 278 279 280 279 276 275 274 273 274 277 279 274 269 268 267 262 257 255 256 254 254 257 260 264 266 265 265 264 263 262 259 255 250 248 250 254 258 259 257 254 255 255 253 251 249 247 244 242 244 247 250 252 255 258 263 265 267 267 267 267 268 269 270 270 268 265 264 266 266 266 267 269 270
278 277 277 278 279 278 275 273 270 270 272 275 274 270 268 267 266 261 256 256 256 255 258 261 263 264 263 262 261 260 261 263 263 259 254 254 256 258 259 257 255 254 254 254 253 252 251 250 247 247 248 250 252 255 258 261 263 265 266 266 266 267 268 269 270 268 263 260 262 265 266 267 268 269
274 274 274 274 276 277 276 274 271 269 268 269 270 269 266 266 267 267 265 262 259 257 258 259 260 261 262 262 262 261 260 259 260 260 258 257 259 259 258 257 258 258 259 258 257 256 255 255 254 253 253 253 255 257 259 261 262 263 264 265 266 266 266 269 271 270 264 261 261 263 265 266 267 268
272 273 273 273 274 276 277 276 274 272 270 269 269 269 268 267 266 268 270 270 268 264 262 263 262 260 260 260 259 259 260 259 258 257 257 257 258 259 258 257 257 258 260 260 259 258 257 257 256 256 256 256 257 257 258 258 258 259 260 262 265 265 265 267 270 271 267 263 262 264 264 265 266 267
273 274 275 275 275 275 276 277 277 276 275 273 272 271 271 271 269 268 268 270 272 271 268 266 266 265 263 263 262 260 259 258 257 257 257 257 257 258 258 258 257 256 257 258 258 257 256 256 256 256 256 256 256 256 255 254 255 256 258 261 264 267 268 268 269 271 269 266 265 265 265 266 267 267
274 275 276 277 278 278 278 279 279 279 278 276 274 273 272 272 272 271 270 268 268 270 270 269 268 267 266 265 266 265 264 262 260 259 258 258 258 259 259 259 259 258 257 258 257 257 256 256 257 257 257 257 256 256 255 255 256 258 260 262 264 267 269 269 269 269 269 269 268 267 267 267 268 268
278 278 279 280 281 281 281 281 281 281 279 278 276 275 273 272 271 271 271 270 268 267 268 268 268 268 267 266 266 266 267 267 266 264 263 261 261 260 260 260 259 259 258 257 258 258 258 258 259 259 259 259 258 258 259 259 259 261 263 264 266 267 269 270 270 269 269 269 269 269 268 268 268 269
283 284 284 284 284 283 282 282 282 283 282 281 279 278 276 274 272 270 269 268 268 267 267 268 267 267 268 268 267 266 266 266 267 267 267 266 265 264 262 261 260 259 258 257 256 257 258 259 259 259 259 259 260 261 261 262 263 263 264 266 267 268 269 270 271 271 271 270 270 271 272 271 270 270
285 286 286 286 286 285 284 283 282 281 281 281 281 280 279 278 276 274 271 269 267 267 267 268 268 268 268 269 270 269 268 266 266 266 266 267 267 267 265 263 261 259 259 257 256 256 256 257 258 259 260 260 261 262 263 263 264 265 266 267 268 269 270 271 271 271 271 271 271 272 272 273 273 273
285 286 285 286 287 287 287 286 284 283 281 279 279 279 279 279 278 277 275 273 271 269 268 268 269 270 269 269 269 269 269 269 268 266 265 265 265 265 264 264 262 260 259 257 256 256 256 257 258 258 259 260 261 262 263 264 265 266 267 268 268 269 270 271 271 271 272 272 271 271 272 272 271 272
284 284 285 285 286 286 287 287 287 287 285 283 281 279 278 278 277 276 276 275 274 274 273 271 271 271 272 272 270 269 268 269 268 267 266 266 265 263 263 262 261 261 260 258 257 256 255 256 257 258 259 259 259 260 261 262 263 264 265 266 267 267 268 270 271 272 272 273 273 272 272 272 271 271
282 283 284 284 285 285 284 285 286 286 286 286 285 283 281 279 277 276 275 275 274 274 273 273 273 272 272 273 273 272 270 269 268 267 266 265 264 264 263 262 261 260 260 260 259 258 256 254 254 255 256 256 257 258 259 260 261 262 263 263 263 264 265 267 269 271 273 274 275 274 274 274 274 273
282 283 283 283 283 284 284 284 284 285 284 284 285 286 285 282 280 278 276 275 274 274 273 272 272 272 272 272 271 271 271 270 269 268 267 265 263 262 262 262 262 261 260 259 259 259 258 256 254 254 255 256 256 256 257 259 259 260 262 263 263 264 265 266 269 272 275 277 278 278 277 277 276 276
281 282 282 281 282 283 285 286 285 284 283 283 284 286 286 285 284 281 279 277 275 274 273 273 272 271 272 271 271 270 269 268 268 268 268 268 266 264 262 261 261 261 260 258 257 256 255 255 256 255 255 255 257 258 259 260 260 261 261 262 265 267 269 271 275 277 279 281 282 282 282 280 279 278
277 277 279 280 280 281 284 285 284 283 284 285 287 289 288 287 286 284 282 280 278 275 274 274 273 272 271 271 271 270 269 268 267 266 266 266 266 266 265 264 262 261 260 258 255 253 252 252 253 254 254 254 255 258 260 261 263 264 264 265 267 270 272 276 279 281 282 283 284 285 285 284 283 282
278 277 278 279 279 279 280 281 280 282 285 287 289 290 289 288 287 285 284 282 281 279 277 275 274 273 272 271 271 271 270 269 268 266 265 265 264 264 264 264 263 262 261 259 254 251 250 251 251 252 255 256 257 258 259 260 261 262 264 267 270 272 275 277 279 281 282 283 284 285 286 286 284 283
280 279 279 280 279 279 280 280 281 283 285 286 288 288 287 286 286 285 285 284 282 281 279 278 277 275 274 272 271 270 270 270 269 268 266 265 264 264 263 262 261 260 260 260 256 252 251 252 253 253 255 257 260 261 262 262 262 262 264 267 270 273 276 278 280 281 282 283 284 284 284 285 284 282
281 281 281 281 281 281 281 282 282 284 285 285 286 285 284 284 284 284 284 284 283 281 280 279 278 277 276 273 271 270 269 269 269 268 268 267 265 264 264 262 260 258 258 258 256 253 251 252 254 256 257 258 261 263 265 266 266 266 267 268 270 272 275 277 279 280 281 282 283 283 283 283 282 281
281 281 281 281 282 282 282 282 282 283 283 283 282 282 283 283 283 283 283 282 281 280 279 278 277 276 275 274 272 270 269 268 267 267 267 267 266 264 264 263 261 257 256 256 255 252 251 253 256 257 259 261 263 264 266 267 268 268 269 269 270 271 273 275 277 279 280 281 281 281 281 281 280 279
280 280 280 280 281 281 280 280 280 280 280 279 280 282 283 282 281 281 281 280 280 279 278 277 275 274 273 273 272 271 270 269 267 266 265 265 265 264 262 262 261 258 256 256 255 252 252 254 257 259 260 262 264 265 267 268 269 269 269 270 270 272 273 274 276 278 280 280 280 280 280 279 278 277
279 277 277 279 279 278 278 278 279 279 279 279 280 281 281 280 278 278 278 279 279 278 277 276 275 274 272 271 271 270 269 268 267 266 266 265 264 263 261 260 259 258 257 256 255 254 253 254 256 258 260 262 264 266 268 269 269 269 269 270 271 273 274 275 276 277 278 279 279 280 280 279 277 276
278 277 277 277 276 276 277 278 279 280 280 280 279 278 278 277 276 276 277 277 277 276 276 276 275 274 272 270 269 268 268 267 266 265 265 264 263 263 262 260 258 257 256 256 256 255 254 255 256 257 259 261 263 265 266 268 269 269 270 270 271 272 273 274 275 275 276 277 279 280 280 279 277 276
278 278 277 275 275 275 276 278 279 279 278 277 275 275 276 277 277 277 277 277 277 276 275 274 273 273 272 271 269 268 267 266 265 265 264 263 263 262 261 260 260 258 257 257 257 255 254 255 256 258 259 260 263 265 266 267 268 269 270 271 271 272 273 273 273 273 274 276 277 278 278 278 277 277
278 277 276 276 276 277 277 277 277 276 276 275 275 276 278 278 278 278 278 278 278 278 276 274 273 271 271 271 270 268 267 265 264 264 263 263 263 262 261 260 260 259 258 258 259 258 257 257 257 259 260 261 263 265 266 267 268 268 270 271 272 272 272 272 272 272 273 274 275 276 277 276 276 277
276 277 278 278 279 278 277 275 275 274 274 275 277 278 278 278 278 278 278 279 279 278 277 276 274 272 270 269 269 268 267 265 264 263 262 261 262 262 261 261 261 260 259 259 259 259 259 259 260 260 261 263 264 265 267 268 268 268 269 269 269 269 270 270 271 272 272 273 274 275 275 275 276 277
276 277 278 278 278 277 275 274 274 274 275 276 276 277 277 278 278 278 278 278 277 277 276 276 275 274 272 270 269 268 266 265 264 262 261 261 260 260 260 260 261 260 260 260 260 260 259 260 261 262 263 264 265 266 267 267 268 268 268 268 268 269 269 270 271 272 272 273 273 273 274 274 276 277
275 276 276 276 275 274 274 274 274 274 274 275 276 277 278 278 277 277 279 279 279 279 279 279 278 277 275 273 271 268 267 265 264 263 261 260 260 259 259 260 260 260 259 259 259 260 261 262 263 264 265 265 265 266 267 267 268 268 269 269 270 270 270 271 271 272 272 272 272 273 274 274 275 276
274 274 275 274 274 273 274 273 273 273 274 275 276 277 277 276 277 279 281 283 283 282 281 281 281 279 277 275 272 269 267 265 264 263 261 260 259 258 258 258 259 259 259 259 259 260 261 263 263 264 265 265 266 267 267 268 268 268 268 269 270 270 271 271 271 271 272 272 273 273 274 274 274 274
273 274 274 274 274 274 274 274 275 276 277 277 278 278 278 279 280 283 285 286 286 285 284 283 282 281 279 277 274 271 267 265 264 263 262 260 259 258 257 257 257 258 259 259 260 261 262 262 263 263 264 264 266 267 267 267 268 268 268 269 270 271 271 271 272 273 273 273 273 274 274 274 274 274
274 275 275 275 274 274 275 276 278 279 280 280 280 280 282 283 284 286 287 288 288 287 286 285 283 282 280 279 277 274 271 268 265 264 263 261 259 258 257 257 256 256 257 258 260 261 261 262 262 263 264 264 265 265 266 266 267 268 269 270 271 272 273 273 273 273 273 273 273 273 273 273 272 272
274 274 274 275 275 276 277 279 280 280 280 281 282 283 285 286 287 288 289 288 288 286 285 284 283 282 280 279 277 276 274 271 269 267 266 265 262 259 258 257 256 256 257 258 259 261 262 263 263 264 264 265 265 266 266 267 268 269 270 271 272 273 273 273 273 273 273 273 272 271 270 269 267 266
271 272 273 275 277 278 279 280 280 280 281 282 284 286 287 288 288 288 287 287 286 285 284 282 281 280 278 277 276 275 274 272 270 269 268 267 265 263 260 258 256 256 257 258 259 261 263 264 265 265 265 265 267 268 269 270 271 271 272 273 274 274 273 273 273 272 272 270 268 266 265 263 262 261
270 272 275 277 279 279 280 281 281 283 284 285 287 287 287 287 286 286 286 285 284 283 281 280 279 277 276 275 274 273 272 271 270 268 267 267 266 265 263 261 258 257 257 258 260 262 264 265 266 267 268 269 269 270 272 273 274 275 275 275 274 273 272 271 271 269 268 266 264 263 261 259 258 258
272 274 277 278 279 280 281 283 284 285 286 287 287 287 286 286 285 285 284 283 282 281 281 280 278 277 275 273 272 271 270 270 269 268 267 266 266 266 266 263 261 259 258 259 261 263 265 266 268 269 270 271 272 273 274 275 275 275 274 273 272 270 269 268 266 265 264 263 261 259 258 257 257 258
275 277 279 280 282 283 284 285 286 287 287 287 286 286 286 285 285 284 284 284 284 284 283 283 281 279 277 275 273 270 268 267 266 266 265 264 264 264 264 263 261 260 259 259 261 263 265 267 268 270 271 271 272 273 273 273 272 271 270 269 267 266 265 264 264 263 262 261 260 258 257 257 258 259
278 280 281 283 285 286 288 288 289 289 288 288 287 287 286 286 286 287 288 289 289 289 288 286 285 282 280 277 274 271 269 267 265 264 263 262 261 260 260 260 259 258 258 258 260 263 266 268 269 270 270 271 271 270 269 268 268 266 265 264 262 262 262 263 264 263 261 258 257 257 257 257 258 258
281 284 286 288 290 291 291 292 292 291 291 290 290 290 290 290 291 292 293 293 292 291 290 288 286 283 281 277 274 271 269 267 265 264 263 261 261 260 259 259 258 258 259 260 263 265 267 268 269 269 268 268 267 265 265 265 264 263 261 259 259 260 261 262 261 261 259 256 254 255 256 258 257 254
289 292 293 293 293 294 294 294 294 294 294 293 293 293 294 294 295 295 294 293 292 291 290 289 286 283 280 277 273 271 268 267 265 264 263 262 262 261 261 260 260 260 261 262 264 265 266 267 268 268 268 266 265 263 262 263 263 261 260 260 259 260 260 259 256 254 252 250 251 252 254 256 254 249
293 294 295 295 296 297 297 297 297 296 295 295 295 295 295 295 295 295 294 293 293 293 292 291 288 284 281 278 275 272 269 267 265 264 264 263 263 262 262 262 261 261 262 263 264 266 267 268 269 269 268 267 265 264 262 262 261 261 261 261 260 259 257 252 246 242 241 243 247 250 253 254 250 245
297 298 299 300 300 301 301 301 301 299 298 297 296 296 296 295 295 294 294 294 295 296 297 296 293 289 285 282 279 276 273 269 267 266 265 264 263 262 262 262 263 263 264 264 265 266 267 268 268 268 268 267 266 265 263 261 259 259 258 258 257 254 248 241 236 235 239 244 247 250 251 248 242 239
302 303 303 304 306 308 309 309 308 305 302 300 299 298 297 296 295 295 296 298 300 301 302 300 296 293 289 287 285 282 277 273 269 267 265 265 265 265 265 265 266 265 265 264 264 265 266 267 267 268 268 267 266 265 262 259 256 253 252 252 251 246 240 236 235 237 241 245 248 250 248 241 234 234
308 309 312 314 316 318 319 318 315 311 308 305 304 301 299 297 297 298 300 301 301 301 299 295 293 294 294 293 291 287 282 278 275 273 271 270 269 268 267 266 264 264 264 265 266 267 267 267 267 266 266 265 264 262 260 256 252 248 245 244 243 239 236 237 237 237 239 241 246 251 248 238 232 231
322 321 322 324 327 327 326 325 322 318 314 311 309 306 302 299 298 299 300 300 298 294 290 289 293 297 298 297 296 294 291 287 283 279 276 273 271 269 267 266 265 266 266 267 268 268 268 267 267 266 265 263 261 259 256 252 248 244 240 238 238 237 235 235 235 235 235 238 245 251 245 233 227 226
338 333 332 334 334 333 332 331 328 323 319 315 311 308 304 298 295 295 296 295 292 287 286 289 294 298 300 303 304 301 297 291 286 283 280 277 275 272 270 268 268 267 267 267 269 269 269 269 269 268 266 264 261 257 252 247 242 239 236 235 234 233 231 231 232 231 232 238 245 244 232 220 218 221
349 344 341 341 340 339 338 337 334 329 323 319 315 312 307 302 298 296 294 291 287 285 288 293 298 301 305 307 306 302 298 294 293 292 291 289 286 281 276 273 270 268 267 268 271 273 274 275 274 272 268 264 259 254 248 242 237 234 232 232 232 231 230 229 227 227 231 236 236 225 213 208 210 215
Height
5739 5739 5740 5740 5740 5740 5740 5741 5741 5742 5742 5743 5744 5744 5745 5746 5746 5747 5748 5749 5750 5750 5750 5750 5751 5752 5752 5752 5752 5753 5754 5754 5755 5757 5759 5760 5761 5762 5764 5765 5766 5766 5766 5766 5767 5767 5768 5770 5772 5774 5776 5777 5779 5780 5781 5781 5781 5781 5781 5781 5781 5782 5782 5782 5782 5783 5784 5785 5785 5786 5786 5787 5787 5787
5737 5737 5738 5738 5738 5739 5739 5739 5739 5740 5740 5740 5741 5742 5743 5743 5744 5745 5745 5746 5747 5747 5747 5748 5748 5749 5750 5751 5751 5751 5752 5753 5754 5755 5756 5756 5758 5759 5760 5761 5762 5762 5763 5763 5764 5765 5766 5767 5768 5770 5772 5773 5774 5776 5777 5777 5777 5777 5776 5776 5777 5777 5778 5778 5778 5779 5779 5780 5781 5782 5782 5782 5783 5783
5735 5736 5736 5736 5736 5736 5737 5737 5738 5738 5738 5739 5739 5740 5740 5741 5741 5742 5742 5743 5744 5745 5745 5745 5746 5746 5747 5748 5749 5749 5750 5751 5752 5753 5753 5754 5755 5757 5758 5758 5758 5759 5759 5760 5761 5762 5763 5763 5764 5766 5767 5769 5770 5771 5772 5773 5773 5772 5772 5772 5772 5773 5773 5773 5774 5775 5776 5776 5776 5777 5778 5778 5778 5778
5733 5733 5733 5734 5734 5734 5735 5735 5736 5736 5737 5737 5737 5738 5738 5738 5739 5739 5739 5740 5740 5741 5742 5742 5743 5743 5744 5745 5746 5747 5747 5749 5750 5750 5751 5752 5752 5754 5755 5755 5756 5756 5756 5757 5758 5759 5759 5759 5760 5761 5763 5764 5766 5767 5768 5768 5768 5768 5768 5768 5768 5768 5769 5769 5769 5770 5772 5772 5772 5773 5773 5773 5773 5773
5730 5731 5731 5731 5732 5732 5733 5733 5734 5734 5735 5735 5736 5736 5736 5736 5737 5737 5737 5737 5737 5738 5739 5739 5740 5740 5741 5742 5742 5743 5744 5745 5746 5747 5747 5748 5749 5750 5751 5752 5752 5753 5753 5754 5754 5755 5755 5756 5756 5757 5759 5760 5761 5762 5763 5764 5764 5764 5765 5765 5764 5764 5765 5765 5765 5766 5767 5767 5767 5768 5769 5768 5769 5769
5728 5729 5729 5729 5729 5730 5730 5731 5731 5732 5732 5733 5733 5733 5734 5734 5734 5734 5734 5735 5734 5734 5735 5736 5736 5737 5738 5738 5739 5739 5740 5741 5742 5742 5743 5744 5745 5746 5746 5747 5748 5749 5750 5750 5751 5751 5752 5752 5752 5753 5755 5756 5757 5758 5759 5760 5760 5761 5761 5761 5761 5761 5761 5761 5762 5762 5762 5762 5763 5763 5764 5764 5764 5764
5726 5726 5727 5727 5727 5727 5728 5728 5728 5729 5729 5729 5730 5730 5731 5731 5731 5732 5732 5732 5732 5732 5732 5732 5733 5733 5734 5735 5735 5735 5736 5736 5737 5738 5738 5739 5740 5741 5742 5743 5744 5745 5745 5746 5747 5747 5747 5748 5749 5750 5750 5751 5752 5753 5754 5755 5756 5756 5756 5756 5757 5757 5757 5757 5757 5758 5758 5758 5758 5758 5759 5760 5760 5760
5724 5724 5724 5725 5725 5725 5725 5725 5726 5726 5726 5726 5726 5727 5727 5727 5728 5729 5729 5728 5729 5729 5729 5729 5729 5730 5730 5730 5731 5731 5732 5732 5733 5733 5733 5734 5734 5735 5736 5738 5738 5739 5740 5742 5742 5743 5743 5744 5744 5745 5746 5747 5748 5749 5750 5750 5751 5751 5751 5752 5752 5752 5752 5752 5753 5753 5754 5754 5754 5754 5754 5755 5755 5755
5721 5721 5722 5722 5722 5722 5722 5723 5723 5723 5723 5723 5723 5723 5723 5723 5724 5724 5725 5725 5725 5725 5725 5726 5726 5726 5726 5726 5726 5726 5727 5728 5729 5729 5729 5729 5730 5730 5731 5732 5733 5734 5735 5736 5737 5738 5738 5739 5740 5740 5741 5742 5743 5743 5744 5745 5746 5746 5747 5747 5747 5747 5747 5747 5748 5748 5748 5749 5749 5749 5749 5749 5750 5750
5718 5718 5718 5719 5719 5719 5719 5719 5719 5720 5720 5720 5720 5720 5720 5719 5719 5719 5720 5720 5721 5721 5721 5721 5721 5721 5721 5722 5722 5721 5722 5722 5723 5724 5724 5725 5725 5725 5726 5727 5728 5729 5730 5731 5732 5733 5733 5734 5735 5735 5736 5737 5738 5738 5739 5739 5740 5741 5742 5742 5742 5742 5742 5742 5742 5743 5743 5744 5744 5744 5744 5744 5744 5745
5714 5714 5714 5715 5715 5715 5714 5714 5715 5715 5715 5716 5716 5716 5716 5715 5715 5715 5715 5715 5716 5716 5716 5717 5716 5716 5716 5716 5716 5717 5717 5717 5717 5718 5719 5720 5720 5720 5721 5722 5723 5723 5724 5725 5726 5728 5728 5729 5729 5730 5731 5732 5732 5733 5734 5734 5735 5736 5736 5737 5737 5737 5737 5737 5737 5737 5738 5738 5738 5739 5739 5739 5739 5739
5710 5710 5710 5711 5711 5711 5710 5710 5710 5710 5711 5711 5711 5711 5711 5711 5711 5710 5710 5710 5710 5711 5711 5711 5711 5711 5711 5710 5710 5711 5711 5712 5712 5712 5713 5714 5715 5715 5716 5717 5717 5718 5719 5720 5721 5722 5723 5724 5725 5725 5726 5727 5727 5728 5729 5729 5730 5730 5731 5732 5732 5732 5733 5733 5732 5732 5732 5732 5733 5733 5734 5733 5733 5734
5705 5705 5706 5706 5706 5706 5705 5705 5705 5705 5706 5706 5706 5706 5706 5706 5706 5706 5705 5705 5705 5705 5705 5705 5706 5706 5706 5705 5705 5705 5705 5706 5706 5706 5707 5708 5709 5710 5711 5712 5712 5712 5713 5714 5715 5716 5717 5718 5719 5720 5721 5721 5722 5723 5723 5724 5725 5725 5726 5726 5727 5727 5727 5728 5728 5728 5728 5727 5728 5728 5728 5728 5728 5728
5701 5701 5701 5701 5701 5701 5700 5700 5700 5700 5700 5701 5701 5701 5701 5701 5701 5700 5700 5700 5700 5700 5700 5700 5700 5700 5700 5700 5700 5700 5699 5700 5701 5701 5701 5702 5702 5703 5704 5706 5707 5706 5706 5708 5710 5711 5711 5712 5713 5715 5715 5715 5716 5717 5717 5718 5719 5720 5720 5721 5721 5721 5721 5722 5722 5723 5723 5723 5722 5723 5723 5723 5723 5723
5696 5696 5695 5696 5696 5696 5695 5695 5694 5695 5695 5695 5695 5696 5696 5695 5695 5695 5695 5695 5694 5694 5694 5694 5694 5694 5695 5695 5694 5694 5694 5694 5695 5696 5696 5696 5696 5696 5698 5700 5701 5700 5700 5702 5704 5705 5705 5706 5707 5708 5709 5710 5711 5712 5712 5713 5714 5715 5715 5715 5715 5715 5715 5716 5716 5716 5717 5717 5717 5717 5717 5717 5717 5717
5690 5690 5689 5690 5690 5690 5690 5690 5690 5690 5690 5690 5689 5690 5690 5689 5689 5689 5689 5689 5689 5688 5689 5688 5688 5688 5688 5689 5689 5688 5688 5688 5689 5689 5689 5689 5689 5690 5691 5692 5694 5694 5693 5694 5696 5698 5699 5699 5700 5702 5703 5704 5705 5706 5707 5708 5709 5709 5709 5709 5709 5709 5709 5709 5710 5710 5710 5710 5710 5710 5710 5711 5711 5711
5683 5683 5683 5683 5684 5684 5684 5684 5685 5685 5685 5684 5684 5684 5684 5684 5683 5683 5682 5682 5682 5682 5682 5682 5682 5682 5682 5683 5683 5682 5681 5682 5682 5682 5682 5682 5683 5684 5685 5686 5687 5687 5687 5686 5688 5691 5692 5692 5693 5695 5696 5697 5698 5699 5700 5701 5702 5703 5704 5704 5704 5703 5703 5703 5703 5704 5704 5704 5704 5704 5704 5704 5704 5704
5676 5676 5676 5676 5676 5677 5677 5678 5678 5678 5678 5678 5678 5678 5678 5678 5678 5677 5677 5676 5675 5675 5675 5675 5676 5675 5675 5676 5676 5675 5675 5675 5675 5675 5675 5676 5676 5677 5678 5679 5680 5681 5680 5680 5681 5684 5686 5685 5685 5688 5689 5690 5691 5692 5693 5693 5695 5696 5697 5698 5698 5698 5698 5698 5697 5697 5698 5698 5699 5698 5698 5698 5697 5697
5670 5670 5669 5669 5669 5670 5670 5670 5671 5671 5670 5670 5670 5671 5672 5672 5672 5671 5670 5669 5669 5668 5668 5668 5668 5668 5668 5668 5668 5668 5668 5667 5667 5668 5668 5668 5669 5669 5670 5672 5673 5674 5674 5673 5674 5677 5679 5678 5678 5681 5682 5682 5683 5685 5686 5686 5687 5688 5690 5691 5691 5692 5692 5692 5692 5691 5691 5692 5692 5692 5692 5691 5691 5690
5664 5663 5661 5661 5662 5662 5662 5663 5663 5663 5662 5662 5662 5663 5664 5664 5664 5664 5663 5662 5662 5661 5661 5661 5661 5660 5660 5660 5660 5660 5660 5660 5660 5660 5661 5661 5661 5661 5663 5664 5666 5666 5667 5666 5667 5670 5672 5671 5671 5673 5674 5674 5675 5676 5678 5679 5679 5680 5681 5683 5684 5685 5685 5685 5685 5684 5684 5683 5684 5685 5685 5684 5684 5683
5657 5655 5653 5653 5654 5654 5655 5655 5655 5654 5654 5654 5654 5655 5655 5655 5656 5655 5654 5654 5654 5654 5653 5653 5653 5653 5652 5652 5652 5652 5652 5652 5652 5652 5654 5653 5652 5653 5655 5657 5658 5659 5659 5659 5659 5661 5664 5664 5664 5665 5666 5667 5667 5668 5670 5671 5671 5671 5673 5674 5676 5677 5677 5678 5677 5676 5675 5674 5675 5675 5676 5676 5676 5675
5648 5647 5646 5646 5647 5647 5648 5647 5647 5646 5646 5646 5646 5646 5647 5647 5647 5646 5646 5646 5646 5646 5645 5645 5645 5644 5644 5644 5644 5645 5644 5644 5644 5644 5646 5645 5644 5645 5647 5648 5649 5651 5652 5651 5650 5652 5655 5656 5656 5657 5658 5659 5659 5659 5661 5662 5662 5663 5665 5666 5667 5668 5669 5670 5669 5668 5667 5666 5666 5666 5666 5667 5667 5667
5639 5639 5639 5640 5640 5640 5641 5640 5639 5639 5638 5638 5638 5638 5638 5638 5638 5637 5637 5637 5637 5637 5637 5637 5636 5636 5635 5635 5636 5636 5636 5636 5636 5636 5636 5636 5636 5637 5638 5638 5640 5642 5644 5643 5640 5643 5646 5647 5647 5648 5649 5650 5650 5649 5651 5654 5655 5655 5655 5656 5657 5659 5661 5661 5660 5659 5658 5658 5657 5657 5657 5657 5658 5658
5631 5630 5631 5633 5633 5633 5633 5632 5632 5631 5631 5630 5630 5629 5629 5629 5629 5628 5628 5627 5627 5627 5627 5627 5627 5627 5627 5627 5627 5627 5627 5627 5627 5627 5627 5627 5627 5628 5629 5630 5631 5633 5635 5634 5631 5634 5637 5637 5639 5639 5639 5640 5641 5640 5641 5644 5646 5646 5646 5646 5647 5650 5651 5650 5649 5649 5649 5648 5648 5648 5648 5648 5649 5649
5623 5622 5623 5625 5626 5625 5625 5625 5624 5624 5623 5622 5622 5621 5621 5621 5620 5620 5619 5619 5618 5618 5618 5618 5618 5618 5618 5618 5617 5617 5617 5617 5617 5617 5618 5618 5618 5619 5620 5621 5622 5624 5625 5624 5623 5625 5627 5628 5629 5630 5629 5630 5631 5631 5632 5634 5635 5637 5637 5636 5638 5640 5641 5640 5640 5639 5639 5638 5638 5638 5638 5639 5639 5640
5616 5615 5616 5619 5619 5617 5617 5616 5616 5615 5615 5614 5614 5613 5613 5612 5612 5611 5611 5611 5610 5610 5609 5609 5609 5608 5608 5608 5607 5607 5607 5607 5606 5607 5608 5608 5608 5609 5610 5611 5612 5614 5615 5614 5614 5615 5618 5619 5620 5620 5620 5621 5622 5622 5623 5624 5625 5626 5626 5626 5628 5630 5630 5630 5630 5629 5629 5628 5628 5629 5629 5629 5629 5629
5610 5608 5609 5611 5611 5609 5609 5608 5608 5608 5607 5606 5606 5605 5605 5604 5603 5603 5603 5602 5602 5601 5600 5599 5599 5598 5597 5597 5597 5596 5596 5596 5596 5596 5597 5597 5598 5599 5600 5601 5602 5604 5605 5605 5605 5606 5608 5609 5610 5610 5610 5610 5611 5612 5613 5613 5615 5616 5616 5616 5618 5619 5620 5620 5620 5619 5618 5618 5618 5618 5618 5618 5618 5618
5604 5603 5602 5603 5603 5602 5602 5601 5601 5600 5599 5599 5598 5597 5597 5596 5595 5595 5594 5593 5592 5592 5590 5589 5588 5587 5586 5586 5586 5585 5585 5585 5585 5586 5586 5587 5587 5588 5590 5591 5592 5593 5595 5596 5596 5597 5598 5599 5600 5600 5600 5600 5600 5602 5603 5603 5604 5605 5606 5606 5607 5608 5609 5610 5610 5609 5608 5608 5608 5607 5607 5607 5608 5608
5597 5597 5596 5596 5596 5595 5595 5594 5593 5592 5591 5591 5590 5589 5588 5587 5587 5586 5585 5583 5582 5581 5580 5578 5577 5576 5575 5574 5574 5574 5574 5574 5574 5574 5574 5575 5577 5578 5579 5580 5582 5584 5585 5586 5586 5587 5587 5588 5589 5590 5590 5590 5591 5592 5593 5593 5594 5595 5596 5597 5598 5598 5599 5599 5599 5598 5597 5597 5597 5597 5596 5596 5596 5597
5591 5591 5590 5590 5589 5589 5588 5587 5586 5585 5584 5583 5582 5581 5580 5579 5578 5576 5575 5573 5572 5570 5569 5567 5566 5565 5564 5564 5563 5562 5562 5563 5563 5563 5563 5564 5565 5566 5568 5570 5572 5574 5575 5576 5576 5576 5577 5578 5578 5579 5581 5581 5582 5583 5583 5583 5584 5585 5585 5587 5588 5588 5588 5588 5588 5587 5586 5586 5586 5586 5585 5585 5585 5586
5585 5585 5584 5584 5583 5583 5582 5581 5580 5578 5578 5577 5575 5574 5573 5571 5569 5567 5566 5564 5562 5561 5559 5558 5556 5555 5554 5553 5553 5552 5552 5552 5552 5552 5552 5553 5554 5555 5556 5559 5562 5564 5565 5565 5566 5566 5566 5568 5569 5570 5571 5572 5572 5573 5573 5573 5575 5576 5575 5577 5578 5577 5577 5577 5575 5575 5575 5575 5574 5574 5575 5575 5576 5577
5580 5579 5579 5578 5577 5577 5576 5575 5573 5572 5571 5570 5569 5567 5565 5563 5561 5559 5557 5555 5553 5551 5550 5548 5547 5546 5544 5543 5543 5542 5542 5542 5542 5542 5542 5543 5544 5544 5546 5548 5551 5553 5554 5555 5556 5557 5557 5558 5559 5560 5562 5563 5563 5563 5563 5563 5565 5565 5564 5566 5567 5566 5565 5564 5564 5563 5564 5564 5564 5564 5566 5567 5568 5569
5574 5574 5574 5573 5572 5571 5570 5569 5568 5566 5565 5563 5561 5559 5557 5555 5553 5550 5548 5546 5544 5542 5540 5539 5537 5536 5535 5534 5533 5532 5532 5532 5532 5532 5533 5534 5534 5535 5536 5539 5541 5543 5544 5546 5547 5548 5548 5549 5550 5551 5552 5553 5554 5554 5553 5553 5554 5553 5553 5555 5556 5555 5554 5554 5554 5554 5554 5554 5555 5556 5557 5558 5560 5561
5570 5570 5569 5568 5568 5567 5565 5564 5562 5560 5558 5555 5553 5551 5549 5546 5544 5542 5539 5537 5535 5533 5531 5529 5528 5526 5525 5525 5524 5523 5523 5523 5523 5523 5523 5524 5526 5527 5528 5530 5532 5533 5535 5537 5539 5538 5539 5540 5541 5542 5543 5543 5544 5544 5543 5544 5543 5542 5542 5544 5545 5545 5545 5545 5544 5545 5545 5546 5547 5548 5549 5551 5553 5554
5566 5565 5565 5564 5563 5561 5559 5557 5555 5553 5550 5548 5546 5543 5541 5538 5536 5533 5530 5528 5526 5524 5522 5520 5518 5517 5516 5515 5515 5514 5514 5514 5514 5514 5515 5516 5517 5518 5520 5521 5523 5525 5526 5529 5530 5530 5530 5531 5532 5533 5533 5534 5534 5534 5533 5533 5533 5533 5533 5535 5536 5536 5537 5537 5537 5537 5539 5540 5540 5541 5543 5545 5547 5548
5562 5561 5560 5559 5557 5555 5553 5551 5548 5546 5544 5541 5538 5535 5533 5530 5527 5524 5522 5519 5516 5514 5512 5510 5509 5507 5506 5506 5505 5505 5505 5505 5506 5506 5507 5507 5509 5510 5512 5514 5515 5516 5518 5520 5521 5521 5522 5523 5523 5523 5524 5524 5525 5525 5524 5523 5525 5526 5526 5527 5529 5529 5529 5530 5530 5531 5532 5533 5534 5535 5537 5539 5541 5542
5558 5557 5555 5553 5551 5549 5547 5545 5543 5540 5537 5534 5530 5527 5524 5521 5518 5516 5513 5510 5507 5505 5502 5501 5499 5498 5497 5496 5496 5497 5497 5497 5498 5499 5499 5500 5501 5503 5504 5506 5507 5508 5510 5512 5513 5513 5513 5513 5513 5514 5514 5515 5516 5517 5516 5515 5517 5518 5519 5520 5522 5522 5523 5524 5524 5525 5527 5528 5529 5530 5532 5533 5535 5537
5553 5552 5550 5549 5547 5545 5542 5540 5537 5533 5530 5526 5523 5519 5516 5513 5510 5507 5504 5501 5498 5496 5494 5493 5491 5490 5489 5489 5489 5489 5490 5490 5491 5492 5492 5493 5494 5496 5497 5498 5500 5501 5503 5504 5504 5504 5505 5505 5505 5505 5505 5506 5507 5509 5509 5509 5510 5511 5513 5514 5516 5516 5517 5518 5519 5520 5521 5522 5524 5525 5527 5528 5530 5531
5550 5548 5547 5545 5543 5540 5537 5534 5531 5527 5523 5519 5515 5512 5509 5506 5503 5499 5496 5494 5491 5490 5488 5486 5485 5484 5483 5483 5483 5483 5484 5484 5485 5486 5486 5487 5488 5489 5491 5492 5493 5494 5495 5496 5497 5497 5497 5497 5497 5497 5497 5498 5499 5501 5502 5503 5503 5504 5506 5508 5509 5510 5511 5512 5514 5515 5517 5518 5520 5521 5522 5524 5525 5527
5547 5545 5543 5541 5538 5535 5532 5529 5525 5520 5516 5513 5509 5505 5501 5498 5495 5493 5490 5488 5486 5485 5483 5482 5481 5480 5479 5479 5478 5479 5479 5480 5480 5481 5481 5482 5483 5484 5485 5486 5487 5488 5489 5490 5490 5490 5490 5490 5490 5490 5491 5492 5493 5494 5495 5496 5497 5498 5500 5501 5503 5504 5506 5507 5509 5511 5512 5514 5515 5517 5518 5520 5521 5523
5543 5541 5539 5537 5534 5531 5527 5523 5519 5514 5510 5506 5502 5498 5494 5491 5489 5487 5485 5484 5483 5482 5480 5479 5478 5477 5477 5476 5476 5476 5476 5477 5477 5477 5478 5479 5479 5480 5480 5481 5482 5483 5483 5484 5484 5484 5484 5484 5484 5484 5485 5486 5487 5488 5489 5490 5491 5493 5494 5496 5498 5499 5501 5503 5505 5506 5508 5510 5511 5513 5514 5515 5517 5519
5540 5538 5536 5533 5530 5527 5522 5518 5513 5508 5503 5499 5495 5491 5488 5486 5484 5483 5482 5481 5480 5479 5478 5477 5476 5476 5475 5475 5475 5475 5475 5475 5475 5475 5475 5475 5475 5476 5476 5476 5477 5477 5478 5478 5478 5478 5478 5478 5478 5478 5479 5480 5481 5482 5483 5485 5486 5487 5489 5491 5492 5494 5496 5499 5501 5502 5504 5506 5508 5510 5511 5512 5514 5516
5537 5535 5533 5530 5526 5522 5518 5513 5508 5503 5497 5493 5489 5486 5484 5483 5481 5480 5479 5479 5478 5477 5476 5476 5475 5475 5474 5474 5474 5473 5473 5472 5472 5472 5471 5471 5471 5471 5472 5472 5472 5473 5473 5473 5473 5473 5473 5472 5472 5472 5473 5474 5475 5476 5477 5479 5481 5482 5484 5486 5487 5490 5492 5495 5496 5498 5500 5503 5505 5506 5508 5509 5511 5513
5535 5532 5530 5526 5523 5519 5514 5510 5504 5498 5493 5488 5485 5483 5482 5481 5480 5479 5478 5477 5476 5475 5475 5475 5474 5474 5473 5473 5472 5471 5470 5470 5469 5468 5467 5467 5467 5467 5467 5467 5468 5468 5468 5468 5469 5469 5468 5468 5467 5468 5468 5469 5469 5470 5471 5473 5475 5477 5479 5481 5483 5486 5488 5491 5493 5495 5497 5499 5501 5503 5504 5506 5509 5511
5533 5530 5527 5523 5519 5515 5511 5506 5500 5495 5490 5486 5483 5481 5480 5479 5478 5477 5476 5475 5475 5474 5474 5474 5474 5473 5472 5471 5470 5469 5468 5467 5466 5465 5464 5464 5464 5464 5464 5464 5464 5464 5465 5465 5465 5465 5464 5463 5463 5463 5464 5464 5465 5465 5466 5468 5470 5472 5475 5477 5480 5482 5485 5487 5490 5492 5494 5497 5498 5500 5502 5504 5507 5510